| time (UTC) | temp F | wind direction | speed knots | gust knots | rain 1hr in | rain 24hr in | rain mn in | humidity % | barometer mb |
| 20260906195511 | 90 | 41 | 4.3 | 8.7 | 0.00 | 0.00 | 0.00 | 52 | 1014.0 |
| 20260906195015 | 90 | 57 | 4.3 | 12.2 | 0.00 | 0.00 | 0.00 | 53 | 1014.0 |
| 20260906194527 | 89 | 135 | 0.9 | 12.2 | 0.00 | 0.00 | 0.00 | 53 | 1014.0 |
| 20260906194017 | 89 | 133 | 1.7 | 8.7 | 0.00 | 0.00 | 0.00 | 54 | 1014.1 |
| 20260906193518 | 89 | 55 | 1.7 | 8.7 | 0.00 | 0.00 | 0.00 | 56 | 1014.2 |
| 20260906193030 | 88 | 65 | 3.5 | 8.7 | 0.00 | 0.00 | 0.00 | 57 | 1014.4 |
| 20260906192507 | 87 | 83 | 1.7 | 8.7 | 0.00 | 0.00 | 0.00 | 57 | 1014.6 |
| 20260906192007 | 87 | 87 | 3.5 | 8.7 | 0.00 | 0.00 | 0.00 | 57 | 1014.7 |
| 20260906191514 | 87 | 49 | 5.2 | 8.7 | 0.00 | 0.00 | 0.00 | 56 | 1014.9 |
| 20260906191009 | 87 | 26 | 5.2 | 10.4 | 0.00 | 0.00 | 0.00 | 57 | 1015.1 |
| 20260906190512 | 87 | 55 | 5.2 | 10.4 | 0.00 | 0.00 | 0.00 | 57 | 1015.2 |
| 20260906190026 | 87 | 69 | 4.3 | 8.7 | 0.00 | 0.00 | 0.00 | 56 | 1015.4 |
| 20260906185514 | 87 | 69 | 3.5 | 8.7 | 0.00 | 0.00 | 0.00 | 57 | 1015.5 |
| 20260906185015 | 86 | 53 | 2.6 | 8.7 | 0.00 | 0.00 | 0.00 | 58 | 1015.5 |
| 20260906184530 | 86 | 29 | 3.5 | 8.7 | 0.00 | 0.00 | 0.00 | 57 | 1015.6 |
| 20260906184018 | 86 | 44 | 4.3 | 8.7 | 0.00 | 0.00 | 0.00 | 59 | 1015.8 |
| 20260906183517 | 86 | 57 | 2.6 | 6.1 | 0.00 | 0.00 | 0.00 | 59 | 1015.9 |
| 20260906183008 | 85 | 78 | 2.6 | 7.8 | 0.00 | 0.00 | 0.00 | 59 | 1016.0 |
| 20260906182507 | 85 | 56 | 4.3 | 7.8 | 0.00 | 0.00 | 0.00 | 58 | 1016.2 |
| 20260906182009 | 85 | 57 | 1.7 | 7.8 | 0.00 | 0.00 | 0.00 | 59 | 1016.4 |
| 20260906181536 | 85 | 63 | 3.5 | 8.7 | 0.00 | 0.00 | 0.00 | 59 | 1016.5 |
| 20260906181010 | 84 | 34 | 4.3 | 10.4 | 0.00 | 0.00 | 0.00 | 59 | 1016.5 |
| 20260906180512 | 84 | 30 | 3.5 | 10.4 | 0.00 | 0.00 | 0.00 | 60 | 1016.6 |
| 20260906180028 | 84 | 30 | 2.6 | 7.8 | 0.00 | 0.00 | 0.00 | 60 | 1016.8 |
| 20260906175514 | 84 | 27 | 4.3 | 7.0 | 0.00 | 0.00 | 0.00 | 60 | 1017.0 |
| 20260906175019 | 83 | 44 | 1.7 | 7.8 | 0.00 | 0.00 | 0.00 | 61 | 1017.0 |
| 20260906174533 | 83 | 50 | 2.6 | 9.6 | 0.00 | 0.00 | 0.00 | 61 | 1017.1 |
| 20260906174016 | 83 | 22 | 2.6 | 9.6 | 0.00 | 0.00 | 0.00 | 61 | 1017.1 |
| 20260906173505 | 83 | 43 | 4.3 | 9.6 | 0.00 | 0.00 | 0.00 | 61 | 1016.9 |
| 20260906173013 | 83 | 65 | 3.5 | 7.8 | 0.00 | 0.00 | 0.00 | 61 | 1017.0 |
| 20260906172510 | 83 | 47 | 1.7 | 7.8 | 0.00 | 0.00 | 0.00 | 62 | 1017.1 |
| 20260906172010 | 83 | 22 | 4.3 | 9.6 | 0.00 | 0.00 | 0.00 | 62 | 1017.2 |
| 20260906171518 | 83 | 34 | 4.3 | 9.6 | 0.00 | 0.00 | 0.00 | 62 | 1017.3 |
| 20260906171012 | 82 | 52 | 1.7 | 8.7 | 0.00 | 0.00 | 0.00 | 62 | 1017.3 |
| 20260906170518 | 82 | 45 | 3.5 | 8.7 | 0.00 | 0.00 | 0.00 | 62 | 1017.4 |
| 20260906170029 | 82 | 33 | 5.2 | 9.6 | 0.00 | 0.00 | 0.00 | 62 | 1017.4 |
| 20260906165516 | 82 | 36 | 4.3 | 9.6 | 0.00 | 0.00 | 0.00 | 63 | 1017.5 |
| 20260906165020 | 82 | 51 | 1.7 | 4.3 | 0.00 | 0.00 | 0.00 | 64 | 1017.7 |
| 20260906164539 | 82 | 66 | 2.6 | 7.8 | 0.00 | 0.00 | 0.00 | 65 | 1017.8 |
| 20260906164016 | 82 | 31 | 2.6 | 7.8 | 0.00 | 0.00 | 0.00 | 64 | 1017.8 |
| 20260906163507 | 82 | 34 | 2.6 | 7.8 | 0.00 | 0.00 | 0.00 | 64 | 1017.8 |
| 20260906163014 | 81 | 67 | 3.5 | 8.7 | 0.00 | 0.00 | 0.00 | 65 | 1017.8 |
| 20260906162512 | 81 | 61 | 3.5 | 8.7 | 0.00 | 0.00 | 0.00 | 65 | 1017.9 |
| 20260906162012 | 81 | 68 | 2.6 | 8.7 | 0.00 | 0.00 | 0.00 | 66 | 1017.8 |
| 20260906161524 | 81 | 13 | 4.3 | 10.4 | 0.00 | 0.00 | 0.00 | 66 | 1017.7 |
| 20260906161014 | 81 | 36 | 5.2 | 10.4 | 0.00 | 0.00 | 0.00 | 65 | 1017.8 |
| 20260906160514 | 81 | 9 | 3.5 | 8.7 | 0.00 | 0.00 | 0.00 | 65 | 1017.8 |
| 20260906160031 | 80 | 17 | 5.2 | 10.4 | 0.00 | 0.00 | 0.00 | 65 | 1017.7 |
| 20260906155517 | 80 | 39 | 4.3 | 11.3 | 0.00 | 0.00 | 0.00 | 65 | 1017.7 |
| 20260906155017 | 80 | 36 | 3.5 | 11.3 | 0.00 | 0.00 | 0.00 | 65 | 1017.6 |
| 20260906154541 | 80 | 9 | 7.0 | 12.2 | 0.00 | 0.00 | 0.00 | 65 | 1017.6 |
| 20260906154007 | 80 | 19 | 5.2 | 12.2 | 0.00 | 0.00 | 0.00 | 65 | 1017.6 |
| 20260906153511 | 79 | 30 | 4.3 | 9.6 | 0.00 | 0.00 | 0.00 | 66 | 1017.5 |
| 20260906153021 | 79 | 344 | 3.5 | 9.6 | 0.00 | 0.00 | 0.00 | 66 | 1017.5 |
| 20260906152512 | 79 | 11 | 3.5 | 9.6 | 0.00 | 0.00 | 0.00 | 67 | 1017.5 |
| 20260906152012 | 78 | 360 | 3.5 | 7.8 | 0.00 | 0.00 | 0.00 | 68 | 1017.5 |
| 20260906151527 | 78 | 346 | 5.2 | 7.8 | 0.00 | 0.00 | 0.00 | 69 | 1017.5 |
| 20260906151017 | 78 | 15 | 2.6 | 7.8 | 0.00 | 0.00 | 0.00 | 69 | 1017.4 |
| 20260906150517 | 78 | 336 | 3.5 | 9.6 | 0.00 | 0.00 | 0.00 | 69 | 1017.3 |
| 20260906150031 | 78 | 352 | 4.3 | 9.6 | 0.00 | 0.00 | 0.00 | 69 | 1017.3 |
| 20260906145519 | 78 | 331 | 5.2 | 9.6 | 0.00 | 0.00 | 0.00 | 69 | 1017.3 |
| 20260906145017 | 78 | 340 | 6.1 | 9.6 | 0.00 | 0.00 | 0.00 | 69 | 1017.2 |
| 20260906144515 | 78 | 348 | 4.3 | 7.8 | 0.00 | 0.00 | 0.00 | 69 | 1017.2 |
| 20260906144008 | 78 | 317 | 3.5 | 7.0 | 0.00 | 0.00 | 0.00 | 69 | 1017.3 |
| 20260906143512 | 78 | 351 | 4.3 | 7.0 | 0.00 | 0.00 | 0.00 | 68 | 1017.3 |
| 20260906143024 | 77 | 342 | 3.5 | 7.0 | 0.00 | 0.00 | 0.00 | 68 | 1017.3 |
| 20260906142514 | 77 | 324 | 2.6 | 4.3 | 0.00 | 0.00 | 0.00 | 68 | 1017.3 |
| 20260906142017 | 77 | 342 | 2.6 | 3.5 | 0.00 | 0.00 | 0.00 | 68 | 1017.4 |
| 20260906141533 | 77 | 325 | 0.9 | 6.1 | 0.00 | 0.00 | 0.00 | 69 | 1017.3 |
| 20260906141019 | 77 | 334 | 1.7 | 7.0 | 0.00 | 0.00 | 0.00 | 69 | 1017.4 |
| 20260906141007 | 77 | 333 | 1.7 | 7.0 | 0.00 | 0.00 | 0.00 | 68 | 1017.4 |
| 20260906140506 | 77 | 308 | 4.3 | 9.6 | 0.00 | 0.00 | 0.00 | 68 | 1017.5 |
| 20260906140007 | 77 | 309 | 4.3 | 9.6 | 0.00 | 0.00 | 0.00 | 68 | 1017.6 |
| 20260906135504 | 77 | 319 | 6.1 | 13.9 | 0.00 | 0.00 | 0.00 | 69 | 1017.6 |
| 20260906135003 | 77 | 304 | 7.0 | 13.9 | 0.00 | 0.00 | 0.00 | 68 | 1017.5 |
| 20260906134511 | 77 | 344 | 7.8 | 12.2 | 0.00 | 0.00 | 0.00 | 69 | 1017.6 |
| 20260906134008 | 77 | 162 | 0.0 | 0.0 | 0.00 | 0.00 | 0.00 | 65 | 1016.9 |
| 20260906133505 | 77 | 162 | 0.0 | 0.0 | 0.00 | 0.00 | 0.00 | 66 | 1016.7 |
| 20260906133004 | 76 | 162 | 0.0 | 0.0 | 0.00 | 0.00 | 0.00 | 65 | 1016.6 |
| 20260906132504 | 76 | 162 | 0.0 | 0.0 | 0.00 | 0.00 | 0.00 | 66 | 1016.5 |
| 20260906132004 | 76 | 162 | 0.0 | 0.0 | 0.00 | 0.00 | 0.00 | 66 | 1016.3 |
| 20260906131511 | 76 | 162 | 0.0 | 0.0 | 0.00 | 0.00 | 0.00 | 67 | 1016.2 |
| 20260906131004 | 75 | 162 | 0.0 | 0.0 | 0.00 | 0.00 | 0.00 | 68 | 1016.1 |
| 20260906130504 | 75 | 162 | 0.0 | 0.0 | 0.00 | 0.00 | 0.00 | 67 | 1016.0 |
| 20260906130007 | 75 | 162 | 0.0 | 0.0 | 0.00 | 0.00 | 0.00 | 68 | 1016.0 |
| 20260906125503 | 75 | 162 | 0.0 | 0.0 | 0.00 | 0.00 | 0.00 | 67 | 1015.9 |
| 20260906125005 | 75 | 162 | 0.0 | 0.0 | 0.00 | 0.00 | 0.00 | 67 | 1015.8 |
| 20260906124508 | 75 | 162 | 0.0 | 0.0 | 0.00 | 0.00 | 0.00 | 68 | 1015.7 |
| 20260906124006 | 75 | 162 | 0.0 | 0.0 | 0.00 | 0.00 | 0.00 | 67 | 1015.7 |
| 20260906123503 | 75 | 162 | 0.0 | 0.0 | 0.00 | 0.00 | 0.00 | 67 | 1015.7 |
| 20260906123010 | 75 | 162 | 0.0 | 0.0 | 0.00 | 0.00 | 0.00 | 67 | 1015.6 |
| 20260906122505 | 75 | 162 | 0.0 | 0.0 | 0.00 | 0.00 | 0.00 | 67 | 1015.6 |
| 20260906122003 | 75 | 166 | 0.0 | 0.0 | 0.00 | 0.00 | 0.00 | 67 | 1015.5 |
| 20260906121507 | 75 | 156 | 0.0 | 0.0 | 0.00 | 0.00 | 0.00 | 67 | 1015.4 |
| 20260906121007 | 75 | 174 | 0.0 | 1.7 | 0.00 | 0.00 | 0.00 | 67 | 1015.3 |
| 20260906120506 | 75 | 149 | 0.0 | 3.5 | 0.00 | 0.00 | 0.00 | 67 | 1015.2 |
| 20260906120007 | 75 | 159 | 0.9 | 3.5 | 0.00 | 0.00 | 0.00 | 66 | 1015.2 |
| 20260906115504 | 75 | 136 | 0.9 | 3.5 | 0.00 | 0.00 | 0.00 | 66 | 1015.1 |
| 20260906115006 | 75 | 157 | 0.9 | 3.5 | 0.00 | 0.00 | 0.00 | 66 | 1015.0 |
| 20260906114523 | 75 | 182 | 1.7 | 3.5 | 0.00 | 0.00 | 0.00 | 66 | 1015.0 |
| 20260906114007 | 75 | 156 | 0.9 | 4.3 | 0.00 | 0.00 | 0.00 | 66 | 1015.0 |
| 20260906113502 | 76 | 157 | 1.7 | 4.3 | 0.00 | 0.00 | 0.00 | 66 | 1015.0 |
| 20260906113008 | 76 | 146 | 1.7 | 4.3 | 0.00 | 0.00 | 0.00 | 66 | 1014.9 |
| 20260906112503 | 76 | 160 | 1.7 | 4.3 | 0.00 | 0.00 | 0.00 | 66 | 1014.7 |
| 20260906112007 | 76 | 142 | 0.0 | 5.2 | 0.00 | 0.00 | 0.00 | 66 | 1014.5 |
| 20260906111511 | 76 | 148 | 2.6 | 5.2 | 0.00 | 0.00 | 0.00 | 66 | 1014.4 |
| 20260906111006 | 76 | 149 | 2.6 | 5.2 | 0.00 | 0.00 | 0.00 | 66 | 1014.4 |
| 20260906110506 | 76 | 140 | 2.6 | 6.1 | 0.00 | 0.00 | 0.00 | 66 | 1014.3 |
| 20260906110013 | 76 | 150 | 2.6 | 6.1 | 0.00 | 0.00 | 0.00 | 66 | 1014.3 |
| 20260906105507 | 76 | 163 | 2.6 | 6.1 | 0.00 | 0.00 | 0.00 | 66 | 1014.3 |
| 20260906105008 | 76 | 98 | 3.5 | 6.1 | 0.00 | 0.00 | 0.00 | 66 | 1014.3 |
| 20260906104513 | 76 | 145 | 2.6 | 5.2 | 0.00 | 0.00 | 0.00 | 66 | 1014.2 |
| 20260906104002 | 76 | 128 | 2.6 | 6.1 | 0.00 | 0.00 | 0.00 | 66 | 1014.2 |
| 20260906103504 | 76 | 143 | 2.6 | 7.0 | 0.00 | 0.00 | 0.00 | 66 | 1014.3 |
| 20260906103008 | 76 | 139 | 2.6 | 7.0 | 0.00 | 0.00 | 0.00 | 66 | 1014.2 |
| 20260906102510 | 76 | 133 | 2.6 | 5.2 | 0.00 | 0.00 | 0.00 | 66 | 1014.3 |
| 20260906102009 | 76 | 142 | 1.7 | 5.2 | 0.00 | 0.00 | 0.00 | 66 | 1014.4 |
| 20260906101513 | 76 | 171 | 2.6 | 5.2 | 0.00 | 0.00 | 0.00 | 65 | 1014.4 |
| 20260906101008 | 76 | 170 | 2.6 | 5.2 | 0.00 | 0.00 | 0.00 | 65 | 1014.4 |
| 20260906100508 | 76 | 144 | 0.0 | 4.3 | 0.00 | 0.00 | 0.00 | 65 | 1014.4 |
| 20260906100014 | 76 | 153 | 0.0 | 2.6 | 0.00 | 0.00 | 0.00 | 65 | 1014.4 |
| 20260906095513 | 77 | 143 | 0.0 | 1.7 | 0.00 | 0.00 | 0.00 | 65 | 1014.4 |
| 20260906095008 | 77 | 137 | 0.0 | 3.5 | 0.00 | 0.00 | 0.00 | 65 | 1014.4 |
| 20260906094533 | 77 | 130 | 0.9 | 3.5 | 0.00 | 0.00 | 0.00 | 65 | 1014.4 |
| 20260906094005 | 77 | 132 | 0.9 | 3.5 | 0.00 | 0.00 | 0.00 | 65 | 1014.3 |
| 20260906093508 | 77 | 147 | 1.7 | 3.5 | 0.00 | 0.00 | 0.00 | 65 | 1014.3 |
| 20260906093018 | 77 | 145 | 0.0 | 4.3 | 0.00 | 0.00 | 0.00 | 65 | 1014.3 |
| 20260906092507 | 77 | 140 | 2.6 | 5.2 | 0.00 | 0.00 | 0.00 | 65 | 1014.2 |
| 20260906092008 | 77 | 134 | 2.6 | 5.2 | 0.00 | 0.00 | 0.00 | 65 | 1014.2 |
| 20260906091513 | 77 | 126 | 1.7 | 5.2 | 0.00 | 0.00 | 0.00 | 65 | 1014.1 |
| 20260906091011 | 77 | 141 | 2.6 | 5.2 | 0.00 | 0.00 | 0.00 | 64 | 1014.1 |
| 20260906090510 | 77 | 148 | 1.7 | 6.1 | 0.00 | 0.00 | 0.00 | 64 | 1014.0 |
| 20260906090024 | 77 | 153 | 1.7 | 6.1 | 0.00 | 0.00 | 0.00 | 64 | 1014.1 |
| 20260906085510 | 77 | 152 | 2.6 | 4.3 | 0.00 | 0.00 | 0.00 | 64 | 1014.2 |
| 20260906085008 | 77 | 139 | 2.6 | 6.1 | 0.00 | 0.00 | 0.00 | 64 | 1014.2 |
| 20260906084508 | 77 | 148 | 1.7 | 6.1 | 0.00 | 0.00 | 0.00 | 64 | 1014.2 |
| 20260906084007 | 77 | 160 | 2.6 | 5.2 | 0.00 | 0.00 | 0.00 | 65 | 1014.2 |
| 20260906083507 | 78 | 148 | 2.6 | 5.2 | 0.00 | 0.00 | 0.00 | 65 | 1014.1 |
| 20260906083026 | 77 | 145 | 1.7 | 5.2 | 0.00 | 0.00 | 0.00 | 65 | 1014.1 |
| 20260906082511 | 78 | 156 | 2.6 | 4.3 | 0.00 | 0.00 | 0.00 | 65 | 1014.1 |
| 20260906082010 | 77 | 157 | 2.6 | 6.1 | 0.00 | 0.00 | 0.00 | 65 | 1014.1 |
| 20260906081517 | 77 | 148 | 2.6 | 6.1 | 0.00 | 0.00 | 0.00 | 65 | 1014.1 |
| 20260906081010 | 77 | 136 | 2.6 | 5.2 | 0.00 | 0.00 | 0.00 | 65 | 1014.2 |
| 20260906080510 | 77 | 164 | 0.9 | 3.5 | 0.00 | 0.00 | 0.00 | 65 | 1014.2 |
| 20260906080017 | 77 | 166 | 0.9 | 3.5 | 0.00 | 0.00 | 0.00 | 66 | 1014.4 |
| 20260906075511 | 77 | 184 | 0.0 | 3.5 | 0.00 | 0.00 | 0.00 | 66 | 1014.3 |
| 20260906075007 | 77 | 186 | 0.0 | 2.6 | 0.00 | 0.00 | 0.00 | 67 | 1014.3 |
| 20260906074517 | 77 | 165 | 0.0 | 2.6 | 0.00 | 0.00 | 0.00 | 67 | 1014.2 |
| 20260906074012 | 77 | 150 | 0.0 | 2.6 | 0.00 | 0.00 | 0.00 | 67 | 1014.2 |
| 20260906073512 | 78 | 141 | 0.9 | 3.5 | 0.00 | 0.00 | 0.00 | 67 | 1014.2 |
| 20260906073025 | 78 | 136 | 1.7 | 3.5 | 0.00 | 0.00 | 0.00 | 67 | 1014.3 |
| 20260906072511 | 78 | 143 | 1.7 | 3.5 | 0.00 | 0.00 | 0.00 | 67 | 1014.3 |
| 20260906072014 | 77 | 145 | 1.7 | 3.5 | 0.00 | 0.00 | 0.00 | 68 | 1014.2 |
| 20260906071520 | 78 | 134 | 0.9 | 2.6 | 0.00 | 0.00 | 0.00 | 68 | 1014.1 |
| 20260906071012 | 78 | 140 | 0.0 | 2.6 | 0.00 | 0.00 | 0.00 | 68 | 1014.1 |
| 20260906070514 | 78 | 149 | 0.0 | 3.5 | 0.00 | 0.00 | 0.00 | 68 | 1014.2 |
| 20260906070021 | 78 | 125 | 1.7 | 3.5 | 0.00 | 0.00 | 0.00 | 68 | 1014.2 |
| 20260906065513 | 78 | 153 | 0.0 | 1.7 | 0.00 | 0.00 | 0.00 | 68 | 1014.2 |
| 20260906065009 | 78 | 153 | 0.0 | 1.7 | 0.00 | 0.00 | 0.00 | 68 | 1014.2 |
| 20260906064515 | 78 | 163 | 0.0 | 1.7 | 0.00 | 0.00 | 0.00 | 68 | 1014.2 |
| 20260906064010 | 78 | 153 | 0.0 | 4.3 | 0.00 | 0.00 | 0.00 | 68 | 1014.1 |
| 20260906063513 | 78 | 144 | 0.9 | 4.3 | 0.00 | 0.00 | 0.00 | 68 | 1013.9 |
| 20260906063019 | 78 | 132 | 0.0 | 1.7 | 0.00 | 0.00 | 0.00 | 69 | 1013.8 |
| 20260906062514 | 78 | 175 | 0.0 | 2.6 | 0.00 | 0.00 | 0.00 | 69 | 1014.0 |
| 20260906062013 | 78 | 134 | 0.0 | 4.3 | 0.00 | 0.00 | 0.00 | 69 | 1013.9 |
| 20260906061529 | 78 | 141 | 0.0 | 4.3 | 0.00 | 0.00 | 0.00 | 69 | 1013.9 |
| 20260906061011 | 78 | 147 | 1.7 | 4.3 | 0.00 | 0.00 | 0.00 | 70 | 1013.8 |
| 20260906060514 | 77 | 146 | 0.0 | 1.7 | 0.00 | 0.00 | 0.00 | 70 | 1013.8 |
| 20260906060021 | 77 | 111 | 0.0 | 1.7 | 0.00 | 0.00 | 0.00 | 71 | 1013.8 |
| 20260906055507 | 77 | 137 | 0.0 | 0.0 | 0.00 | 0.00 | 0.00 | 72 | 1013.8 |
| 20260906055010 | 77 | 127 | 0.0 | 0.0 | 0.00 | 0.00 | 0.00 | 72 | 1013.9 |
| 20260906054519 | 77 | 135 | 0.0 | 0.0 | 0.00 | 0.00 | 0.00 | 73 | 1013.9 |
| 20260906054013 | 77 | 135 | 0.0 | 0.0 | 0.00 | 0.00 | 0.00 | 73 | 1014.0 |
| 20260906053513 | 77 | 135 | 0.0 | 0.0 | 0.00 | 0.00 | 0.00 | 73 | 1013.9 |
| 20260906053026 | 77 | 135 | 0.0 | 0.0 | 0.00 | 0.00 | 0.00 | 72 | 1013.9 |
| 20260906052512 | 77 | 135 | 0.0 | 0.0 | 0.00 | 0.00 | 0.00 | 72 | 1014.1 |
| 20260906052004 | 77 | 135 | 0.0 | 0.0 | 0.00 | 0.00 | 0.00 | 72 | 1014.0 |
| 20260906051508 | 77 | 135 | 0.0 | 0.0 | 0.00 | 0.00 | 0.00 | 72 | 1014.0 |
| 20260906051007 | 77 | 135 | 0.0 | 0.0 | 0.00 | 0.00 | 0.00 | 71 | 1014.0 |
| 20260906050508 | 77 | 135 | 0.0 | 0.0 | 0.00 | 0.00 | 0.00 | 72 | 1014.0 |
| 20260906050015 | 77 | 170 | 0.0 | 0.0 | 0.00 | 0.00 | 0.00 | 71 | 1014.0 |
| 20260906045511 | 77 | 170 | 0.0 | 0.9 | 0.00 | 0.00 | 0.00 | 71 | 1014.0 |
| 20260906045010 | 77 | 169 | 0.0 | 0.9 | 0.00 | 0.00 | 0.00 | 71 | 1013.9 |
| 20260906044523 | 77 | 159 | 0.0 | 0.0 | 0.00 | 0.00 | 0.00 | 71 | 1013.9 |
| 20260906044013 | 77 | 163 | 0.0 | 0.0 | 0.00 | 0.00 | 0.00 | 71 | 1013.9 |
| 20260906043513 | 77 | 168 | 0.0 | 0.9 | 0.00 | 0.00 | 0.00 | 71 | 1013.9 |
| 20260906043024 | 78 | 211 | 0.0 | 0.9 | 0.00 | 0.00 | 0.00 | 70 | 1013.8 |
| 20260906042511 | 78 | 203 | 0.0 | 1.7 | 0.00 | 0.00 | 0.00 | 70 | 1014.0 |
| 20260906042003 | 78 | 226 | 0.0 | 1.7 | 0.00 | 0.00 | 0.00 | 70 | 1013.9 |
| 20260906041507 | 78 | 205 | 0.0 | 0.0 | 0.00 | 0.00 | 0.00 | 69 | 1013.9 |
| 20260906041009 | 78 | 231 | 0.0 | 0.0 | 0.00 | 0.00 | 0.00 | 69 | 1013.9 |
| 20260906040507 | 79 | 231 | 0.0 | 0.0 | 0.00 | 0.00 | 0.00 | 69 | 1013.9 |
| 20260906040021 | 79 | 231 | 0.0 | 0.0 | 0.00 | 0.00 | 0.00 | 68 | 1014.0 |
| 20260906035512 | 79 | 231 | 0.0 | 0.0 | 0.00 | 0.00 | 0.00 | 69 | 1014.1 |
| 20260906035016 | 79 | 232 | 0.0 | 0.0 | 0.00 | 0.00 | 0.00 | 68 | 1014.1 |
| 20260906034528 | 79 | 201 | 0.0 | 0.0 | 0.00 | 0.00 | 0.00 | 68 | 1014.1 |
| 20260906034015 | 79 | 171 | 0.0 | 0.0 | 0.00 | 0.00 | 0.00 | 68 | 1013.9 |
| 20260906033515 | 79 | 171 | 0.0 | 1.7 | 0.00 | 0.00 | 0.00 | 68 | 1013.9 |
| 20260906033037 | 80 | 226 | 0.0 | 1.7 | 0.00 | 0.00 | 0.00 | 68 | 1013.9 |
| 20260906032503 | 80 | 239 | 0.0 | 0.0 | 0.00 | 0.00 | 0.00 | 68 | 1013.9 |
| 20260906032008 | 80 | 208 | 0.0 | 0.0 | 0.00 | 0.00 | 0.00 | 68 | 1013.7 |
| 20260906031512 | 80 | 129 | 0.0 | 0.0 | 0.00 | 0.00 | 0.00 | 68 | 1013.6 |
| 20260906031008 | 80 | 129 | 0.0 | 0.0 | 0.00 | 0.00 | 0.00 | 68 | 1013.5 |
| 20260906030510 | 80 | 129 | 0.0 | 0.0 | 0.00 | 0.00 | 0.00 | 69 | 1013.4 |
| 20260906030021 | 80 | 129 | 0.0 | 0.0 | 0.00 | 0.00 | 0.00 | 69 | 1013.3 |
| 20260906025512 | 80 | 129 | 0.0 | 0.0 | 0.00 | 0.00 | 0.00 | 68 | 1013.3 |
| 20260906025017 | 80 | 129 | 0.0 | 0.0 | 0.00 | 0.00 | 0.00 | 68 | 1013.4 |
| 20260906024541 | 80 | 336 | 0.0 | 0.0 | 0.00 | 0.00 | 0.00 | 67 | 1013.3 |
| 20260906024014 | 80 | 336 | 0.0 | 0.0 | 0.00 | 0.00 | 0.00 | 68 | 1013.2 |
| 20260906023516 | 80 | 336 | 0.0 | 0.0 | 0.00 | 0.00 | 0.00 | 68 | 1013.2 |
| 20260906023026 | 81 | 336 | 0.0 | 0.0 | 0.00 | 0.00 | 0.00 | 68 | 1013.1 |
| 20260906022506 | 81 | 336 | 0.0 | 0.0 | 0.00 | 0.00 | 0.00 | 68 | 1013.1 |
| 20260906022006 | 81 | 336 | 0.0 | 0.0 | 0.00 | 0.00 | 0.00 | 68 | 1013.1 |
| 20260906021512 | 81 | 336 | 0.0 | 0.0 | 0.00 | 0.00 | 0.00 | 67 | 1013.1 |
| 20260906021012 | 81 | 336 | 0.0 | 0.0 | 0.00 | 0.00 | 0.00 | 68 | 1013.0 |
| 20260906020513 | 81 | 336 | 0.0 | 0.0 | 0.00 | 0.00 | 0.00 | 67 | 1013.1 |
| 20260906020023 | 81 | 336 | 0.0 | 0.0 | 0.00 | 0.00 | 0.00 | 67 | 1013.1 |
| 20260906015515 | 81 | 336 | 0.0 | 0.0 | 0.00 | 0.00 | 0.00 | 67 | 1013.0 |
| 20260906015015 | 81 | 336 | 0.0 | 0.0 | 0.00 | 0.00 | 0.00 | 68 | 1012.9 |
| 20260906014539 | 81 | 336 | 0.0 | 0.0 | 0.00 | 0.00 | 0.00 | 67 | 1012.8 |
| 20260906014016 | 82 | 336 | 0.0 | 0.0 | 0.00 | 0.00 | 0.00 | 68 | 1012.8 |
| 20260906013517 | 82 | 336 | 0.0 | 0.0 | 0.00 | 0.00 | 0.00 | 68 | 1012.6 |
| 20260906013027 | 82 | 336 | 0.0 | 0.0 | 0.00 | 0.00 | 0.00 | 68 | 1012.6 |
| 20260906012510 | 82 | 336 | 0.0 | 0.0 | 0.00 | 0.00 | 0.00 | 67 | 1012.6 |
| 20260906012008 | 82 | 336 | 0.0 | 0.0 | 0.00 | 0.00 | 0.00 | 67 | 1012.6 |
| 20260906011518 | 83 | 336 | 0.0 | 0.0 | 0.00 | 0.00 | 0.00 | 66 | 1012.5 |
| 20260906011013 | 83 | 336 | 0.0 | 0.0 | 0.00 | 0.00 | 0.00 | 66 | 1012.5 |
| 20260906010513 | 83 | 336 | 0.0 | 0.0 | 0.00 | 0.00 | 0.00 | 65 | 1012.6 |
| 20260906010028 | 83 | 336 | 0.0 | 0.0 | 0.00 | 0.00 | 0.00 | 64 | 1012.6 |
| 20260906005515 | 83 | 336 | 0.0 | 1.7 | 0.00 | 0.00 | 0.00 | 64 | 1012.6 |
| 20260906005017 | 83 | 336 | 0.0 | 1.7 | 0.00 | 0.00 | 0.00 | 64 | 1012.7 |
| 20260906004529 | 83 | 234 | 0.0 | 0.0 | 0.00 | 0.00 | 0.00 | 63 | 1012.7 |
| 20260906004014 | 83 | 182 | 0.0 | 0.0 | 0.00 | 0.00 | 0.00 | 62 | 1012.5 |
| 20260906003508 | 83 | 182 | 0.0 | 0.0 | 0.00 | 0.00 | 0.00 | 63 | 1012.7 |
| 20260906003014 | 83 | 241 | 0.0 | 1.7 | 0.00 | 0.00 | 0.00 | 63 | 1012.7 |
| 20260906002511 | 83 | 241 | 0.0 | 1.7 | 0.00 | 0.00 | 0.00 | 63 | 1012.7 |
| 20260906002012 | 83 | 268 | 0.0 | 2.6 | 0.00 | 0.00 | 0.00 | 63 | 1012.8 |
| 20260906001523 | 83 | 298 | 0.0 | 2.6 | 0.00 | 0.00 | 0.00 | 63 | 1012.6 |
| 20260906001015 | 83 | 263 | 0.0 | 1.7 | 0.00 | 0.00 | 0.00 | 63 | 1012.6 |
| 20260906000515 | 83 | 263 | 0.0 | 1.7 | 0.00 | 0.00 | 0.00 | 63 | 1012.6 |
| 20260906000032 | 83 | 263 | 0.0 | 0.9 | 0.00 | 0.00 | 0.00 | 63 | 1012.6 |
| 20260905235519 | 83 | 39 | 0.0 | 1.7 | 0.00 | 0.00 | 0.00 | 63 | 1012.4 |
| 20260905235015 | 83 | 39 | 0.9 | 3.5 | 0.00 | 0.00 | 0.00 | 63 | 1012.3 |
| 20260905234529 | 83 | 39 | 0.9 | 3.5 | 0.00 | 0.00 | 0.00 | 63 | 1012.2 |
| 20260905234014 | 82 | 38 | 1.7 | 4.3 | 0.00 | 0.00 | 0.00 | 64 | 1012.3 |
| 20260905233510 | 82 | 49 | 2.6 | 4.3 | 0.00 | 0.00 | 0.00 | 64 | 1012.4 |
| 20260905233015 | 82 | 37 | 1.7 | 4.3 | 0.00 | 0.00 | 0.00 | 64 | 1012.4 |
| 20260905232513 | 82 | 30 | 0.9 | 9.6 | 0.00 | 0.00 | 0.00 | 65 | 1012.5 |
| 20260905232013 | 83 | 342 | 3.5 | 9.6 | 0.00 | 0.00 | 0.00 | 65 | 1012.7 |
| 20260905231524 | 82 | 86 | 0.0 | 1.7 | 0.00 | 0.00 | 0.00 | 63 | 1012.5 |
| 20260905231015 | 82 | 86 | 0.0 | 1.7 | 0.00 | 0.00 | 0.00 | 65 | 1012.4 |
| 20260905230517 | 82 | 155 | 0.0 | 0.0 | 0.00 | 0.00 | 0.00 | 65 | 1012.4 |
| 20260905230006 | 81 | 304 | 0.0 | 0.0 | 0.00 | 0.00 | 0.00 | 66 | 1012.4 |
| 20260905225503 | 81 | 304 | 0.0 | 1.7 | 0.00 | 0.00 | 0.00 | 66 | 1012.5 |
| 20260905225006 | 81 | 304 | 0.0 | 3.5 | 0.00 | 0.00 | 0.00 | 67 | 1012.5 |
| 20260905224510 | 81 | 273 | 1.7 | 7.0 | 0.00 | 0.00 | 0.00 | 67 | 1012.6 |
| 20260905224011 | 81 | 290 | 2.6 | 7.8 | 0.00 | 0.00 | 0.00 | 66 | 1012.7 |
| 20260905223511 | 82 | 294 | 3.5 | 7.8 | 0.00 | 0.00 | 0.00 | 66 | 1012.7 |
| 20260905223019 | 82 | 321 | 5.2 | 14.8 | 0.00 | 0.00 | 0.00 | 65 | 1012.7 |
| 20260905222516 | 83 | 302 | 7.8 | 14.8 | 0.00 | 0.00 | 0.00 | 62 | 1012.9 |
| 20260905222016 | 85 | 313 | 7.0 | 12.2 | 0.00 | 0.00 | 0.00 | 58 | 1012.8 |
| 20260905221527 | 85 | 289 | 2.6 | 7.0 | 0.00 | 0.00 | 0.00 | 61 | 1012.8 |
| 20260905221014 | 85 | 302 | 0.0 | 0.0 | 0.00 | 0.00 | 0.00 | 60 | 1012.4 |
| 20260905220503 | 85 | 302 | 0.0 | 1.7 | 0.00 | 0.00 | 0.00 | 61 | 1012.3 |
| 20260905220008 | 85 | 302 | 0.0 | 7.0 | 0.00 | 0.00 | 0.00 | 61 | 1012.4 |
| 20260905215508 | 85 | 302 | 0.0 | 7.0 | 0.00 | 0.00 | 0.00 | 61 | 1012.3 |
| 20260905215009 | 85 | 306 | 3.5 | 6.1 | 0.00 | 0.00 | 0.00 | 62 | 1012.2 |
| 20260905214520 | 85 | 326 | 0.9 | 4.3 | 0.00 | 0.00 | 0.00 | 64 | 1012.1 |
| 20260905214011 | 85 | 321 | 0.0 | 1.7 | 0.00 | 0.00 | 0.00 | 64 | 1012.0 |
| 20260905213513 | 84 | 161 | 0.0 | 1.7 | 0.00 | 0.00 | 0.00 | 62 | 1012.3 |
| 20260905213025 | 84 | 106 | 0.9 | 11.3 | 0.00 | 0.00 | 0.00 | 63 | 1012.5 |
| 20260905212515 | 85 | 331 | 0.9 | 19.1 | 0.00 | 0.00 | 0.00 | 61 | 1012.6 |
| 20260905212017 | 85 | 302 | 12.2 | 26.1 | 0.00 | 0.00 | 0.00 | 58 | 1012.7 |
| 20260905211537 | 88 | 346 | 17.4 | 26.1 | 0.00 | 0.00 | 0.00 | 51 | 1012.9 |
| 20260905211017 | 90 | 324 | 10.4 | 16.5 | 0.00 | 0.00 | 0.00 | 48 | 1012.8 |
| 20260905210506 | 93 | 292 | 10.4 | 16.5 | 0.00 | 0.00 | 0.00 | 43 | 1012.5 |
| 20260905210010 | 96 | 286 | 6.1 | 12.2 | 0.00 | 0.00 | 0.00 | 38 | 1012.7 |
| 20260905205507 | 96 | 61 | 1.7 | 8.7 | 0.00 | 0.00 | 0.00 | 36 | 1012.4 |
| 20260905205011 | 97 | 144 | 4.3 | 9.6 | 0.00 | 0.00 | 0.00 | 36 | 1012.5 |
| 20260905204526 | 97 | 101 | 6.1 | 9.6 | 0.00 | 0.00 | 0.00 | 35 | 1012.6 |
| 20260905204013 | 97 | 153 | 3.5 | 10.4 | 0.00 | 0.00 | 0.00 | 36 | 1012.4 |
| 20260905203512 | 97 | 206 | 3.5 | 10.4 | 0.00 | 0.00 | 0.00 | 35 | 1012.4 |
| 20260905203027 | 97 | 155 | 5.2 | 11.3 | 0.00 | 0.00 | 0.00 | 36 | 1012.4 |
| 20260905202514 | 97 | 170 | 6.1 | 11.3 | 0.00 | 0.00 | 0.00 | 36 | 1012.1 |
| 20260905202014 | 97 | 140 | 4.3 | 10.4 | 0.00 | 0.00 | 0.00 | 36 | 1012.2 |
| 20260905201530 | 98 | 360 | 4.3 | 12.2 | 0.00 | 0.00 | 0.00 | 36 | 1012.3 |
| 20260905201007 | 98 | 142 | 6.1 | 14.8 | 0.00 | 0.00 | 0.00 | 36 | 1012.5 |
| 20260905200513 | 98 | 77 | 3.5 | 14.8 | 0.00 | 0.00 | 0.00 | 35 | 1012.7 |
| 20260905200018 | 99 | 148 | 6.1 | 13.9 | 0.00 | 0.00 | 0.00 | 35 | 1012.7 |